Weather History for KEWR - October, 2010

Change the Weather History Date:

Monday, October 11, 2010

  Actual Average Record
Temperature  
Mean Temperature 66 °F 58 °F  
Max Temperature 79 °F 67 °F 88 °F (1949)
Min Temperature 52 °F 50 °F 36 °F (1979)
Degree Days  
Heating Degree Days 0 8  
Month to date heating degree days 47 66  
Since 1 July heating degree days 50 111  
Cooling Degree Days 1 1  
Month to date cooling degree days 3 12  
Year to date cooling degree days 1662 1186  
Growing Degree Days 15 (Base 50)    
Moisture  
Dew Point 54 °F    
Average Humidity 67    
Maximum Humidity 93    
Minimum Humidity 40    
Precipitation  
Precipitation 0.37 in 0.12 in 2.68 in (2002)
Month to date precipitation 2.95 1.32  
Year to date precipitation 36.88 36.51  
Snow  
Snow 0.00 in 0.00 in 0.00 in (2002)
Month to date snowfall 0.0 0.0  
Since 1 July snowfall 0.0 0.0  
Snow Depth 0.00 in    
Sea Level Pressure  
Sea Level Pressure 29.79 in    
Wind  
Wind Speed 6 mph (SW)    
Max Wind Speed 26 mph    
Max Gust Speed 31 mph    
Visibility 9 miles    
Events Rain , Thunderstorm    
T = Trace of Precipitation, MM = Missing Value Source: NWS Daily Summary

Daily Weather History Graph

Daily Weather History Graph

Search for Another Location

Airport or City:

Trip Planner

Search our weather history database for the weather conditions in past years. The results will help you decide how hot, cold, wet, or windy it might be!

Date:

Astronomy

Oct. 11, 2010 Rise Set
Actual Time 7:03 AM EDT 6:22 PM EDT
Civil Twilight 6:36 AM EDT 6:50 PM EDT
Nautical Twilight 6:04 AM EDT 7:21 PM EDT
Astronomical Twilight 5:32 AM EDT 7:53 PM EDT
Moon 11:38 AM EDT (10/11) 8:56 PM EDT (10/11)
Length of Visible Light 12h 14m
Length of Day
11h 19m
Waxing Crescent, 19% of the Moon is Illuminated
Oct 11
Waxing Crescent
Oct 14
First Quarter
Oct 22
Full
Oct 30
Last Quarter
Nov 6
New

Hourly Weather History & Observations

Time (EDT) Temp. Dew Point Humidity Pressure Visibility Wind Dir Wind Speed Gust Speed Precip Events Conditions
12:51 AM 61.0 °F 46.9 °F 60% 29.74 in 10.0 mi NW 4.6 mph - N/A   Partly Cloudy
1:51 AM 57.0 °F 46.9 °F 69% 29.75 in 10.0 mi SW 3.5 mph - N/A   Clear
2:51 AM 57.9 °F 46.9 °F 67% 29.75 in 10.0 mi WSW 4.6 mph - N/A   Clear
3:51 AM 55.9 °F 48.0 °F 75% 29.75 in 10.0 mi South 4.6 mph - N/A   Clear
4:51 AM 55.4 °F 48.2 °F 77% 29.78 in 10.0 mi SW 3.5 mph - N/A   Clear
5:51 AM 55.0 °F 48.0 °F 77% 29.79 in 10.0 mi West 3.5 mph - N/A   Partly Cloudy
6:51 AM 52.0 °F 48.0 °F 86% 29.81 in 10.0 mi SW 5.8 mph - N/A   Scattered Clouds
7:51 AM 57.0 °F 48.9 °F 74% 29.82 in 10.0 mi WSW 5.8 mph - N/A   Scattered Clouds
8:51 AM 61.0 °F 50.0 °F 67% 29.83 in 10.0 mi WSW 5.8 mph - N/A   Mostly Cloudy
9:51 AM 66.9 °F 48.9 °F 52% 29.84 in 10.0 mi Variable 4.6 mph - N/A   Mostly Cloudy
10:51 AM 69.1 °F 50.0 °F 51% 29.84 in 10.0 mi WSW 5.8 mph - N/A   Scattered Clouds
11:51 AM 72.0 °F 50.0 °F 46% 29.83 in 10.0 mi SW 5.8 mph - N/A   Scattered Clouds
12:51 PM 75.0 °F 50.0 °F 41% 29.82 in 10.0 mi West 9.2 mph - N/A   Mostly Cloudy
1:51 PM 77.0 °F 51.1 °F 40% 29.79 in 10.0 mi West 12.7 mph - N/A   Mostly Cloudy
2:51 PM 77.0 °F 53.1 °F 43% 29.78 in 10.0 mi WSW 10.4 mph - N/A   Mostly Cloudy
3:51 PM 78.1 °F 53.1 °F 42% 29.77 in 10.0 mi West 9.2 mph - N/A   Mostly Cloudy
4:51 PM 78.1 °F 54.0 °F 43% 29.75 in 10.0 mi Variable 5.8 mph - N/A   Mostly Cloudy
5:51 PM 73.9 °F 55.0 °F 52% 29.76 in 10.0 mi SSE 8.1 mph - N/A   Mostly Cloudy
6:51 PM 72.0 °F 57.0 °F 59% 29.77 in 10.0 mi SE 3.5 mph - N/A   Mostly Cloudy
7:26 PM 69.8 °F 57.2 °F 64% 29.76 in 10.0 mi SSE 4.6 mph - N/A Thunderstorm Thunderstorm
7:51 PM 71.1 °F 57.0 °F 61% 29.76 in 10.0 mi Calm Calm - 0.00 in Rain , Thunderstorm Light Thunderstorms and Rain
8:37 PM 62.6 °F 59.0 °F 88% 29.81 in 3.0 mi North 16.1 mph 28.8 mph 0.04 in Rain , Thunderstorm Heavy Thunderstorms and Rain
8:51 PM 63.0 °F 60.1 °F 90% 29.80 in 3.0 mi North 11.5 mph - 0.13 in Rain , Thunderstorm Thunderstorms and Rain
9:03 PM 62.6 °F 60.8 °F 94% 29.80 in 3.0 mi South 3.5 mph - 0.06 in Rain , Thunderstorm Light Thunderstorms and Rain
9:13 PM 62.6 °F 60.8 °F 94% 29.81 in 10.0 mi North 4.6 mph - N/A Rain , Thunderstorm Light Thunderstorms and Rain
9:29 PM 64.4 °F 59.0 °F 83% 29.79 in 10.0 mi NE 3.5 mph - 0.06 in   Mostly Cloudy
9:44 PM 64.4 °F 60.8 °F 88% 29.78 in 8.0 mi ESE 3.5 mph - 0.06 in Rain , Thunderstorm Light Thunderstorms and Rain
9:51 PM 64.0 °F 61.0 °F 90% 29.78 in 8.0 mi ESE 3.5 mph - 0.06 in Rain , Thunderstorm Light Thunderstorms and Rain
10:04 PM 64.4 °F 60.8 °F 88% 29.78 in 10.0 mi ESE 4.6 mph - 0.00 in Rain Light Rain
10:17 PM 62.6 °F 59.0 °F 88% 29.78 in 10.0 mi SSE 5.8 mph - 0.00 in Thunderstorm Thunderstorm
10:51 PM 64.0 °F 60.1 °F 87% 29.82 in 8.0 mi NNW 3.5 mph - 0.00 in Rain , Thunderstorm Light Thunderstorms and Rain
11:24 PM 62.6 °F 57.2 °F 82% 29.81 in 6.0 mi East 3.5 mph - 0.13 in Rain , Thunderstorm Light Thunderstorms and Rain
11:42 PM 62.6 °F 57.2 °F 82% 29.80 in 10.0 mi East 5.8 mph - 0.16 in Rain Light Rain
11:49 PM 62.6 °F 57.2 °F 82% 29.79 in 10.0 mi Calm Calm - 0.18 in Rain Light Rain
11:51 PM 62.1 °F 57.9 °F 86% 29.79 in 10.0 mi Calm Calm - 0.18 in Rain Light Rain